{"data":{"norad_id":64883,"epoch":"2026-09-21T20:57:55.934784Z","epoch_age_seconds":52513,"freshness":"FRESH","line1":"1 64883U 25155H   26264.87356406  .00006675  00000+0  22542-3 0  9997","line2":"2 64883  97.4689 233.8431 0007004 172.7819 187.3524 15.30987899 95546","mean_motion":15.30987899,"eccentricity":0.0007004,"inclination_deg":97.4689,"raan_deg":233.8431,"arg_perigee_deg":172.7819,"mean_anomaly_deg":187.3524,"bstar":0.00022542,"rev_number":9554,"period_min":94.056915860705,"perigee_km":468.06511320302,"apogee_km":477.66199477905,"semimajor_km":6851.000553991,"source":"CELESTRAK","updated_at":"2026-09-22T09:00:30.015041Z"}}